www.pogodaiklimat.ru

Погода и климат >> Архив погоды >> Россия >> Краснодарский край >> Магри


ПОГОДА в Магри

  • Прогноз погоды в Магри
  • Монитор погоды в Магри

АРХИВ ПОГОДЫ в Магри

Время (UTC), дата Ветер
(напр.,м/с)
 
Видим.   Явления Облачность Т
(С)
Тd
(С)
f
(%)
Тe
(С)
Тes
(С)
Комфортность P
(гПа)
Po
(гПа)
Тmin
(С)
Tmax
(С)
R
(мм)
R24
(мм)
S
(см)
09 19.03 ЮВ 2 н/о н/о +9.8 +4.9 72 +8 +8 1026.5 1020.1
12 19.03 Ю 1 н/о н/о +10.3 +5.0 70 +10 +10 1025.1 1018.8
15 19.03 СЗ 1 н/о н/о +8.7 +4.1 73 +8 +8 1023.8 1017.4 +11.0 0.3
18 19.03 С 1 н/о н/о +3.9 +3.8 99 +2 +2 1024.2 1017.7
21 19.03 С 1 н/о н/о +2.5 +2.5 100 +1 +1 1023.7 1017.2
00 20.03 С 1 н/о н/о +1.6 +1.6 100 -1 -1 1023.0 1016.4
03 20.03 С 1 н/о н/о +1.9 +1.9 100 -0 -0 1022.2 1015.7 +1.5
06 20.03 Ю 1 н/о н/о +8.0 +7.7 98 +7 +7 1022.3 1015.9
09 20.03 ЮЗ 1 н/о н/о +10.2 +5.3 72 +10 +10 1022.5 1016.2
12 20.03 Ю 1 н/о н/о +11.1 +4.6 64 +11 +11 1022.1 1015.8
15 20.03 штиль 0 н/о н/о +9.4 +5.7 78 +9 +9 1022.6 1016.3 +11.4 0.3
18 20.03 С 1 н/о н/о +5.0 +5.0 100 +3 +3 1023.9 1017.5
21 20.03 штиль 0 н/о н/о +7.1 +7.1 100 +6 +6 1024.6 1018.3
00 21.03 ЮВ 1 н/о н/о +7.9 +6.4 90 +7 +7 1025.5 1019.1
03 21.03 ЮВ 1 н/о н/о +7.8 +5.9 88 +7 +7 1026.2 1019.8 +5.0
06 21.03 ЮВ 3 н/о н/о +8.2 +4.4 77 +6 +6 1027.7 1021.3
09 21.03 ЮВ 3 н/о н/о +9.7 +4.3 69 +8 +8 1028.4 1022.0
12 21.03 ЮВ 2 н/о н/о +10.0 +4.0 66 +9 +9 1028.3 1021.9
15 21.03 ЮВ 1 н/о н/о +9.2 +3.8 69 +9 +9 1028.1 1021.8 +10.5
18 21.03 ЮВ 1 н/о н/о +8.9 +4.1 72 +8 +8 1028.9 1022.5
21 21.03 штиль 0 н/о н/о +7.9 +3.8 75 +7 +7 1028.5 1022.1
00 22.03 ЮВ 2 н/о н/о +7.7 +3.7 76 +6 +6 1027.9 1021.5
03 22.03 штиль 0 н/о н/о +6.4 +6.0 97 +5 +5 1027.8 1021.4 +6.3 1
06 22.03 ЮВ 1 н/о н/о +8.1 +5.9 86 +7 +7 1028.2 1021.8 +5.6
09 22.03 ЮЗ 1 н/о н/о +10.2 +2.9 60 +10 +10 1028.0 1021.7
12 22.03 Ю 1 н/о н/о +9.9 +3.6 65 +10 +10 1027.2 1020.9
15 22.03 В 2 н/о н/о +8.7 +3.0 67 +7 +7 1026.3 1019.9 +10.8 3
18 22.03 ЮВ 5 н/о н/о +8.7 +4.1 73 +5 +5 1026.1 1019.7
21 22.03 ЮВ 6
{10}
н/о н/о +8.5 +4.4 75 +5 +5 1024.5 1018.1
00 23.03 Ю 6-13
{13}
н/о н/о +8.3 +4.1 75 +4 +4 1022.5 1016.2
03 23.03 Ю 8-14
{14}
н/о н/о +8.1 +4.3 77 +3 +3 1019.6 1013.3 +8.0
06 23.03 СВ 1
{15}
н/о н/о +4.2 +4.0 99 +3 +3 1019.6 1013.1 +4.5
09 23.03 Ю 1 н/о н/о +2.7 +2.1 96 +1 +1 1018.1 1011.6
12 23.03 штиль 0 н/о н/о +4.9 +0.6 74 +4 +4 1017.4 1011.0
15 23.03 СЗ 1 н/о н/о +5.1 +0.4 72 +4 +4 1017.8 1011.4 +8.1 19
18 23.03 штиль 0 н/о н/о -0.2 -0.2 100 -2 -2 1019.1 1012.5
21 23.03 СЗ 1 н/о н/о -1.2 -1.2 100 -4 -4 1020.2 1013.6
00 24.03 штиль 0 н/о н/о -0.9 -0.9 100 -2 -2 1020.0 1013.4
03 24.03 СЗ 1 н/о н/о -1.5 -1.5 100 -4 -4 1020.6 1014.0 -1.5
06 24.03 Ю 1 н/о н/о +3.1 +3.1 100 +1 +1 1021.2 1014.7 -1.6
09 24.03 ЮВ 4 н/о н/о +4.6 +1.0 77 +1 +1 1021.3 1014.8
12 24.03 ЮВ 2 н/о н/о +6.0 -0.0 65 +4 +4 1020.8 1014.4
15 24.03 штиль 0 н/о н/о +5.8 -1.6 59 +5 +5 1021.4 1015.0 +6.4 0.5
18 24.03 штиль 0 н/о н/о +4.0 +0.5 78 +3 +3 1022.4 1015.9
21 24.03 ЮВ 2 н/о н/о +4.4 -0.3 71 +2 +2 1022.4 1016.0
00 25.03 С 1 н/о н/о +3.2 +2.8 97 +1 +1 1022.0 1015.5
03 25.03 С 1 н/о н/о +0.7 +0.7 100 -2 -2 1020.8 1014.3 +1.0 0.3
06 25.03 С 1 н/о н/о +5.8 -0.2 65 +5 +5 1019.9 1013.5 -0.1

 

Местоположение метеостанции Магри (Краснодарский край, Россия): широта 44.02 долгота 39.16 высота над уровнем моря 32 м.

В архиве по умолчанию представлена погода в Магри за последнюю неделю. Архивные данные за месяц целиком и за предыдущие месяцы, начиная с января 2011 года, Вы можете получить, выбрав интересующий диапазон дат из раскрывающегося списка и нажав кнопку "Ввод!".


*Определитесь, кто Вы:
робот инопланетянин человек

Внимание! Время в таблицах - всемирное. Для получения местного времени необходимо прибавить поправку, которая равна 3 ч.

Смотрите также архив погоды в соседних городах и на ближайших метеорологических станциях:

Погода в Туапсе (Краснодарский край, Россия) (11 км)
Погода в Лазаревском (Краснодарский край, Россия) (19 км)
Погода в Горном (Краснодарский край, Россия) (30 км)
Погода в Кичмае (Краснодарский край, Россия) (35 км)
Погода в Солох Ауле (Краснодарский край, Россия) (45 км)
Погода в Джубге (Краснодарский край, Россия) (49 км)
Погода в Горячем Ключе (Краснодарский край, Россия) (68 км)
Погода в Сочи (Краснодарский край, Россия) (69 км)
Погода в Гузерипле (Адыгея, Россия) (78 км)
Погода в Кепше (Краснодарский край, Россия) (84 км)

Пояснения к столбцам:

Ветер - указаны скорость ветра в м/с - средняя за 10 мин, порывы в срок и между сроками (в фигурных скобках) и направление, откуда дует ветер: С - северный, СВ - северо-восточный, В - восточный, ЮВ - юго-восточный, Ю - южный, ЮЗ - юго-западный, З - западный, СЗ - северо-западный.
Видимость - горизонтальная дальность видимости в метрах или километрах. При видимости от 1 до 10 км при отсутствии осадков обычно наблюдается дымка, при ухудшении видимости до 1 км и менее - туман. В сухую погоду видимость может ухудшаться дымом, пылью или мглою.
Явления - указаны атмосферные явления, наблюдавшиеся в срок или в последний час перед сроком; фигурными скобками обозначены явления, наблюдавшиеся между сроками (за 1-3 часа до срока); квадратными скобками обозначены град или гололедные отложения с указанием их диаметра в мм.
Облачность - указаны через наклонную черту общая и нижняя облачность в баллах и высота нижней границы облаков в метрах; квадратными скобками обозначены формы облаков: Ci - перистые, Cs - перисто-слоистые, Cc - перисто-кучевые, Ac - высококучевые, As - высокослоистые, Sc - слоисто-кучевые, Ns - слоисто-дождевые, Cu - кучевые, Cb - кучево-дождевые. Подробнее классификацию облаков см. в Атласе облаков (PDF).
T - Температура воздуха - температура, измеренная на высоте 2 м над землей.
Td - Температура точки росы - температура, при понижении до которой содержащийся в воздухе водяной пар достигнет насыщения.
f - Относительная влажность воздуха - влажноcть воздуха, измеренная на высоте 2 м над землей.
Te - Эффективная температура - температура, которую ощущает одетый по сезону человек в тени. Характеристика душности погоды. При расчете учитывается влияние влажности воздуха и скорости ветра на теплоощущения человека.
Tes - Эффективная температура на солнце - температура, которую ощущает человек, с поправкой на солнечный нагрев. Характеристика знойности погоды. Зависит от высоты солнца над горизонтом, облачности и скорости ветра. Ночью, в пасмурную погоду, а также при ветре 12 м/с и более поправка равна нулю.
P - Атмосферное давление - приведенное к уровню моря атмосферное давление.
Po - Атмосферное давление - измеренное на уровне метеостанции атмосферное давление.
Tmin - Минимальная температура - минимум температуры воздуха на высоте 2 м над землей.
Tmax - Максимальная температура - максимум температуры воздуха на высоте 2 м над землей.
R - Количество осадков - Количество выпавших осадков за период времени, мм. При наведении курсора мыши на число - период времени, за который выпало указанное количество осадков.
R24 - Количество осадков - Количество выпавших осадков за 24 часа, мм.
S - Снежный покров - Высота снежного покрова, см. При наведении курсора мыши на число - состояние снежного покрова и степень покрытия местности в баллах.